FW6131 Weather Reports


time (UTC)temp
C
wind
direction
speed
KPH
gust
KPH
rain 1hr
cm
rain 24hr
cm
rain mn
cm
humidity
%
barometer
mb
20260506144542 13 355 1.6 17.7 0.00 0.00 0.00 61 1009.9
20260506143040 13 129 3.2 14.5 0.00 0.00 0.00 59 1010.0
20260506141538 13 33 3.2 14.5 0.00 0.00 0.00 59 1010.1
20260506140041 13 41 4.8 20.9 0.00 0.00 0.00 55 1009.9
20260506134539 13 39 3.2 17.7 0.00 0.00 0.00 53 1010.0
20260506133039 13 31 4.8 19.3 0.00 0.00 0.00 52 1009.9
20260506131548 13 16 6.4 16.1 0.00 0.00 0.00 49 1009.8
20260506130053 13 20 4.8 17.7 0.00 0.00 0.00 49 1009.8
20260506124545 14 25 4.8 25.7 0.00 0.00 0.00 47 1009.7
20260506123043 14 5 6.4 20.9 0.00 0.00 0.00 47 1009.6
20260506121539 15 68 4.8 14.5 0.00 0.00 0.00 46 1009.5
20260506120040 15 29 9.7 20.9 0.00 0.00 0.00 45 1009.4
20260506114538 14 29 9.7 24.1 0.00 0.00 0.00 46 1009.3
20260506113046 14 24 8.0 19.3 0.00 0.00 0.00 45 1009.4
20260506111540 13 360 9.7 20.9 0.00 0.00 0.00 45 1009.3
20260506110045 13 39 8.0 22.5 0.00 0.00 0.00 46 1009.4
20260506104547 13 29 8.0 20.9 0.00 0.00 0.00 47 1009.5
20260506103047 13 23 8.0 22.5 0.00 0.00 0.00 46 1009.4
20260506101549 13 14 8.0 20.9 0.00 0.00 0.00 47 1009.5
20260506100056 12 23 9.7 19.3 0.00 0.00 0.00 50 1009.6
20260506094540 12 14 4.8 22.5 0.00 0.00 0.00 52 1009.6
20260506093043 12 47 8.0 20.9 0.00 0.00 0.00 53 1009.6
20260506091539 12 355 6.4 22.5 0.00 0.00 0.00 53 1009.6
20260506090038 12 355 6.4 17.7 0.00 0.00 0.00 56 1009.6
20260506084549 11 355 6.4 17.7 0.00 0.00 0.00 56 1009.6
20260506083041 11 355 8.0 19.3 0.00 0.00 0.00 57 1009.7
20260506081545 11 355 6.4 19.3 0.00 0.00 0.00 58 1009.6
20260506073044 10 355 8.0 16.1 0.00 0.00 0.00 62 1009.5
20260506071541 10 355 8.0 19.3 0.00 0.00 0.00 64 1009.5
20260506061540 8 355 8.0 19.3 0.00 0.00 0.00 69 1009.4
20260506044625 8 355 6.4 16.1 0.00 0.00 0.00 75 1009.5
20260506043038 8 355 6.4 16.1 0.00 0.00 0.00 76 1009.6
20260506041536 8 355 4.8 12.9 0.00 0.00 0.00 77 1009.4
20260506040039 8 355 6.4 12.9 0.00 0.00 0.00 79 1009.5
20260506034610 7 355 4.8 12.9 0.00 0.00 0.00 82 1009.5
20260506033039 7 355 4.8 12.9 0.00 0.00 0.00 83 1009.5
20260506031540 7 355 1.6 9.7 0.00 0.00 0.00 85 1009.5
20260506030038 7 355 4.8 14.5 0.00 0.00 0.00 85 1009.5
20260506024540 7 355 4.8 16.1 0.00 0.00 0.00 85 1009.7
20260506023101 7 355 4.8 12.9 0.00 0.00 0.00 86 1009.9
20260506021537 7 355 3.2 8.0 0.00 0.00 0.00 86 1009.9
20260506020039 7 355 3.2 9.7 0.00 0.00 0.00 87 1010.2
20260506014537 7 355 1.6 6.4 0.00 0.00 0.00 86 1010.3
20260506013040 7 355 0.0 4.8 0.00 0.00 0.00 85 1010.2
20260506011540 7 355 0.0 3.2 0.00 0.00 0.00 85 1010.2
20260506010048 8 355 0.0 4.8 0.00 0.00 0.00 85 1010.3
20260506004559 8 0 1.6 8.0 0.00 0.00 0.00 84 1010.4
20260506003046 8 355 3.2 8.0 0.00 0.00 0.00 85 1010.6
20260506001540 8 355 3.2 9.7 0.00 0.00 0.00 84 1010.7
20260506000037 8 355 3.2 6.4 0.00 0.00 0.00 84 1010.8
20260505234556 8 355 3.2 9.7 0.00 0.00 0.00 84 1010.9
20260505233038 8 355 3.2 9.7 0.00 0.00 0.00 83 1010.7
20260505231539 8 355 1.6 8.0 0.00 0.00 0.00 83 1010.9
20260505230042 8 355 4.8 14.5 0.00 0.00 0.00 82 1010.8
20260505224540 8 355 3.2 8.0 0.00 0.00 0.00 82 1010.8
20260505223036 8 355 3.2 8.0 0.00 0.00 0.00 81 1011.1
20260505221536 8 355 3.2 9.7 0.00 0.00 0.00 81 1011.0
20260505220051 8 355 3.2 6.4 0.00 0.00 0.00 80 1011.2
20260505214540 9 355 1.6 6.4 0.00 0.00 0.00 79 1011.4
20260505213038 9 355 3.2 8.0 0.00 0.00 0.00 78 1011.4
20260505211546 9 355 3.2 9.7 0.00 0.00 0.00 76 1011.4
20260505210038 10 355 3.2 8.0 0.00 0.00 0.00 76 1011.4
20260505204538 10 355 1.6 4.8 0.00 0.00 0.00 77 1011.4
20260505203038 10 355 0.0 4.8 0.00 0.00 0.00 76 1011.2
20260505201539 10 355 0.0 3.2 0.00 0.00 0.00 75 1011.2
20260505200038 11 355 1.6 3.2 0.00 0.00 0.00 72 1011.2
20260505194543 11 355 1.6 4.8 0.00 0.00 0.00 71 1011.1
20260505193045 11 355 1.6 6.4 0.00 0.00 0.00 70 1010.9
20260505191551 11 355 1.6 4.8 0.00 0.00 0.00 70 1010.9
20260505190038 12 355 1.6 9.7 0.00 0.00 0.00 69 1010.8
20260505184538 12 355 1.6 8.0 0.00 0.00 0.00 69 1010.7
20260505183036 12 355 3.2 12.9 0.00 0.00 0.00 68 1010.7
20260505181539 13 23 3.2 14.5 0.00 0.00 0.00 68 1010.8
20260505180052 13 360 3.2 12.9 0.00 0.00 0.00 68 1010.9
20260505174546 13 355 4.8 14.5 0.00 0.00 0.00 68 1010.9
20260505173038 13 20 6.4 11.3 0.00 0.00 0.00 68 1010.9
20260505171538 13 42 3.2 11.3 0.00 0.00 0.00 69 1011.1
20260505170041 13 4 3.2 8.0 0.00 0.00 0.00 70 1011.0
20260505164540 13 14 6.4 16.1 0.00 0.00 0.00 69 1011.0
20260505163040 13 311 4.8 16.1 0.00 0.00 0.00 69 1011.1
20260505161540 13 36 4.8 14.5 0.00 0.00 0.00 69 1011.0
20260505153053 14 23 4.8 11.3 0.00 0.00 0.00 68 1011.4
20260505151546 13 338 4.8 14.5 0.00 0.00 0.00 70 1011.4